NUSAT-7 (SOPHIE) (45017 NORAD) Tracking and Keplerian Element Data

This shows tracking and keplerian element data for the satellite.

Feedback or suggestion? Click here.




ElementValue
Catalog45017
NameNUSAT-7 (SOPHIE)
Epoch Orbit580
Epoch Day53.16304924
Epoch Year2020
RAAN121.4234
Inclination97.3312
Eccentricity0.0014419
Argument of Perigee134.8907
Mean Anonmoly225.3506
Mean Motion15.27378808
Decay Rate8.81E-06
L11 45017U 20003B 20053.16304924 .00000881 00000-0 35501-4 0 9996
L22 45017 97.3312 121.4234 0014419 134.8907 225.3506 15.27378808 5807

Live tracking and technical data element details for NUSAT-7 (SOPHIE) (NORAD 45017). NUSAT-7 (SOPHIE) can be tracked NOW for your location showing map with azimuth and elevation plus other details from your city location.

Track the satellite on the map from your city or location and see movement details for azimuth, elevation, latitude, longitude, range, height, and movement on the map or in text.







IsCatalogInMostPopularTable: catalog: 45017, numindb: 11
Update: records affected: 1



GetName: 45017 NUSAT-7 (SOPHIE)

Hit Count: updated at: Wed, 26 Feb 2020 15:19:49 GMT